Location: ??? ?????
(30.6482°N, 60.5850°E)
Time: 07:11:16
(UTC+00:00)

PSLV R/B - Pass Details

Date: 09 April 2020
Orbit: 594 x 629 km, 97.9° (Epoch: 23 May)

Event Time Altitude Azimuth Distance (km) Brightness Sun altitude
Rises 23:34:28 0° 14° (NNE) 2,918 7.6 -25.5°
Reaches altitude 10° 23:36:41 10° 17° (NNE) 2,009 6.7 -25.1°
Maximum altitude 23:41:03 72° 101° (E) 663 3.7 -24.3°
Enters shadow 23:41:45 58° 159° (SSE) 730 3.8 -24.1°
